[[{"header":{"parameterUnit":"m.s-1","parameterCategory":1,"la1":30.2991,"la2":30.254,"lo1":-89.0895,"lo2":-89.0444,"dy":0.0017,"dx":0.0017,"nx":28,"ny":28,"refTime":"2024-06-03T03:00:00:Z","depth":0,"parameterNumber":2,"parameterNumberName":"U-component_of_WINDS"},"data":[0,0,0,0,0,0,0,0,0,0,0,0,0,0,0,0,0,0,0,0,0,0,0,0,0,0,0,0,0,0,0,0,0,0,0,0,0,0,0,0,0,0,0,0,0,0,0,0,0,0,0,0,0,0,0,0,0,0,-1.522,-1.5219,0,-1.5181,-1.5181,-1.5181,-1.5102,-1.5101,-1.5099,-1.5098,-1.5061,-1.5061,-1.5061,0,0,0,0,0,0,0,0,0,0,0,0,0,-1.5227,-1.5228,-1.522,-1.5219,-1.5219,-1.5181,-1.5181,-1.518,-1.5103,-1.5101,-1.5099,-1.5097,-1.506,-1.5061,-1.5062,0,0,0,0,0,0,0,0,0,0,0,0,0,-1.521,-1.5228,-1.522,-1.5175,-1.5171,-1.5182,-1.5181,-1.518,-1.5103,-1.5101,-1.5098,-1.5096,-1.506,-1.5061,-1.5062,-1.5113,0,0,-1.5064,-1.5064,0,0,0,0,0,0,0,0,-1.5211,-1.521,-1.5182,-1.5178,-1.5174,-1.5144,-1.517,-1.5158,-1.5104,-1.5129,-1.5098,-1.5095,-1.509,-1.5089,-1.5087,-1.5111,-1.511,-1.5064,-1.5064,-1.5065,-1.5065,0,0,0,0,0,0,0,-1.5212,-1.5211,-1.5205,-1.5182,-1.5177,-1.5158,-1.5153,-1.5167,-1.5123,-1.5126,-1.5121,-1.5117,-1.5088,-1.5086,-1.5085,-1.5109,-1.5064,-1.5064,-1.5065,-1.5065,-1.5174,-1.5176,0,0,0,0,0,0,-1.522,-1.5213,-1.5206,-1.5203,-1.5187,-1.516,-1.5154,-1.5156,-1.5123,-1.5116,-1.5119,-1.5114,-1.5086,-1.5084,-1.5084,-1.5141,-1.5065,-1.5065,-1.5066,-1.5172,-1.5175,-1.5177,0,0,0,0,0,0,-1.522,-1.522,-1.5207,-1.5206,-1.5203,-1.5162,-1.5165,-1.5157,-1.5155,-1.5117,-1.5109,-1.5126,-1.5084,-1.5083,-1.5106,-1.5139,-1.5066,-1.5066,-1.5169,-1.5173,-1.5176,-1.5257,0,0,0,0,0,0,-1.5221,-1.5221,-1.5239,-1.5207,-1.5204,-1.523,-1.5167,-1.5157,-1.5156,-1.5148,-1.5121,-1.5115,-1.5082,-1.5105,-1.5107,-1.5138,-1.5067,-1.5166,-1.517,-1.5175,-1.5252,-1.5263,-1.5273,0,0,0,0,0,-1.5221,-1.5264,-1.5241,-1.524,-1.5226,-1.5232,-1.523,-1.5191,-1.5159,-1.5178,-1.5154,-1.5115,-1.5135,-1.5109,-1.5109,-1.5142,-1.5163,-1.5169,-1.5174,-1.5247,-1.5261,-1.5273,0,0,0,0,0,0,-1.5302,-1.5259,-1.5233,-1.5266,-1.5253,-1.5219,-1.5241,-1.5208,-1.5205,-1.5198,-1.515,-1.5145,-1.5175,-1.5161,-1.5132,-1.519,-1.5143,-1.5149,-1.5198,-1.5211,-1.5222,-1.5225,-1.5067,0,0,0,0,0,-1.5323,-1.5331,-1.5294,-1.5327,-1.5322,-1.5283,-1.5284,-1.5255,-1.5241,-1.5235,-1.5213,-1.52,-1.5203,-1.5207,-1.5208,-1.5249,-1.5242,-1.5272,-1.5283,-1.5292,-1.5298,-1.5319,-1.5331,-1.5196,-1.5195,-1.5195,0,0,-1.5368,-1.5346,-1.5353,-1.5343,-1.5329,-1.5339,-1.5279,-1.5292,-1.5299,-1.5237,-1.5257,-1.5241,-1.5224,-1.5257,-1.527,-1.5246,-1.5334,-1.5299,-1.5307,-1.5307,-1.5326,-1.5339,-1.535,-1.5199,-1.5199,-1.5198,0,0,-1.5454,-1.5438,-1.5464,-1.5451,-1.5432,-1.5406,-1.5412,-1.5383,-1.5369,-1.5389,-1.5343,-1.5351,-1.5358,-1.5347,-1.5343,-1.5426,-1.539,-1.5427,-1.5485,-1.5505,-1.5516,-1.5525,-1.5555,-1.5566,-1.5433,-1.5433,-1.5434,0,-1.5512,-1.5524,-1.5481,-1.5497,-1.5494,-1.5438,-1.5464,-1.5454,-1.5437,-1.5436,-1.5409,-1.5416,-1.5401,-1.543,-1.545,-1.5449,-1.5455,-1.543,-1.5518,-1.5527,-1.5535,-1.5562,-1.5573,-1.5438,-1.5437,-1.5437,-1.5437,0,-1.5596,-1.5606,-1.5629,-1.5612,-1.5612,-1.5633,-1.5594,-1.5598,-1.557,-1.5547,-1.5568,-1.5548,-1.5544,-1.5549,-1.5521,-1.5574,-1.556,-1.5526,-1.5478,-1.5553,-1.5578,-1.5588,-1.5445,-1.5443,-1.5442,-1.544,0,0,-1.5731,-1.5691,-1.57,-1.5692,-1.5666,-1.5673,-1.5692,-1.5687,-1.5692,-1.5682,-1.5696,-1.5703,-1.5672,-1.5667,-1.5638,-1.5657,-1.5723,-1.562,-1.5619,-1.564,-1.578,-1.5805,-1.5818,-1.57,-1.5702,-1.5703,-1.5781,0,-1.5811,-1.584,-1.5802,-1.584,-1.5848,-1.5795,-1.5811,-1.5798,-1.5777,-1.5781,-1.5758,-1.5764,-1.5722,-1.5719,-1.5735,-1.5712,-1.5751,-1.5706,-1.5713,-1.5714,-1.5718,-1.5831,-1.5858,-1.5933,-1.5791,-1.5792,-1.5794,0,-1.5908,-1.5902,-1.594,-1.5912,-1.5914,-1.5929,-1.5922,-1.5926,-1.591,-1.5894,-1.5889,-1.5854,-1.5871,-1.5825,-1.5847,-1.5818,-1.5819,-1.5808,-1.581,-1.5809,-1.5758,-1.5833,-1.5956,-1.5967,-1.5809,-1.5807,-1.5806,0,-1.6003,-1.6004,-1.6027,-1.6021,-1.5989,-1.6001,-1.5988,-1.597,-1.5969,-1.5963,-1.5962,-1.5959,-1.5957,-1.5955,-1.592,-1.589,-1.5947,-1.5899,-1.5934,-1.5935,-1.5948,-1.5948,-1.6073,-1.595,-1.595,-1.595,-1.5949,0,-1.6096,-1.6121,-1.6068,-1.6083,-1.6109,-1.6066,-1.6094,-1.6076,-1.606,-1.607,-1.6025,-1.6035,-1.5989,-1.5995,-1.5968,-1.5991,-1.599,-1.5977,-1.597,-1.5981,-1.5983,-1.5981,-1.5975,-1.5953,-1.5952,-1.5951,-1.5951,0,-1.6206,-1.6171,-1.6192,-1.616,-1.6153,-1.6174,-1.6147,-1.6159,-1.6135,-1.6148,-1.6149,-1.6112,-1.6116,-1.6081,-1.6079,-1.6061,-1.6097,-1.608,-1.6102,-1.6097,-1.6134,-1.6131,-1.6262,-1.6277,-1.6145,-1.6147,-1.6148,0,-1.6267,-1.6285,-1.6255,-1.6258,-1.6247,-1.6253,-1.6252,-1.621,-1.6211,-1.6194,-1.6209,-1.6209,-1.6207,-1.6216,-1.619,-1.6188,-1.6171,-1.6217,-1.617,-1.6181,-1.6171,-1.617,-1.6172,-1.6227,-1.6228,-1.623,-1.6231,0,-1.638,-1.6362,-1.6362,-1.6356,-1.6356,-1.635,-1.6341,-1.6346,-1.6301,-1.6305,-1.6308,-1.6307,-1.6304,-1.6305,-1.6298,-1.6286,-1.6251,-1.6246,-1.6254,-1.6265,-1.6277,-1.6271,-1.6128,-1.6243,-1.6242,-1.6241,-1.624,-1.624,-1.6467,-1.648,-1.6461,-1.6462,-1.6451,-1.6444,-1.6453,-1.643,-1.6432,-1.6427,-1.6402,-1.641,-1.6393,-1.638,-1.6371,-1.6377,-1.6355,-1.6367,-1.6369,-1.6373,-1.638,-1.6276,-1.6375,-1.6375,-1.6375,-1.6374,-1.6374,0,-1.6577,-1.6561,-1.6563,-1.6552,-1.6553,-1.652,-1.6508,-1.6512,-1.6519,-1.6506,-1.6505,-1.6509,-1.651,-1.6483,-1.6481,-1.6491,-1.6475,-1.6491,-1.649,-1.6488,-1.64,-1.6393,-1.6504,-1.6504,-1.6504,-1.6504,-1.6504,-1.6504,-1.6634,-1.6655,-1.6635,-1.665,-1.6635,-1.6641,-1.6638,-1.6631,-1.662,-1.6626,-1.6626,-1.6609,-1.6591,-1.6586,-1.6586,-1.6578,-1.6579,-1.6601,-1.6588,-1.6506,-1.6494,-1.6482,-1.6475,-1.6602,-1.6602,-1.6675,-1.6676,-1.6676]},{"header":{"parameterUnit":"m.s-1","parameterCategory":1,"la1":30.2991,"la2":30.254,"lo1":-89.0895,"lo2":-89.0444,"dy":0.0017,"dx":0.0017,"nx":28,"ny":28,"refTime":"2024-06-03T03:00:00:Z","depth":0,"parameterNumber":3,"parameterNumberName":"V-component_of_WINDS"},"data":[0,0,0,0,0,0,0,0,0,0,0,0,0,0,0,0,0,0,0,0,0,0,0,0,0,0,0,0,0,0,0,0,0,0,0,0,0,0,0,0,0,0,0,0,0,0,0,0,0,0,0,0,0,0,0,0,0,0,1.8448,1.8448,0,1.8464,1.8464,1.8464,1.8457,1.8456,1.8456,1.8455,1.8471,1.8472,1.8473,0,0,0,0,0,0,0,0,0,0,0,0,0,1.8412,1.8412,1.8448,1.8448,1.8449,1.8464,1.8464,1.8464,1.8457,1.8456,1.8456,1.8455,1.8471,1.8472,1.8473,0,0,0,0,0,0,0,0,0,0,0,0,0,1.8427,1.8413,1.8448,1.8447,1.8447,1.8464,1.8464,1.8464,1.8457,1.8456,1.8456,1.8455,1.8471,1.8472,1.8473,1.8492,0,0,1.8477,1.8477,0,0,0,0,0,0,0,0,1.8427,1.8429,1.8447,1.8447,1.8447,1.8458,1.8457,1.8474,1.8457,1.8453,1.8455,1.8455,1.8467,1.8469,1.8473,1.8493,1.8494,1.8477,1.8477,1.8478,1.8478,0,0,0,0,0,0,0,1.8426,1.8428,1.8454,1.8447,1.8447,1.8445,1.8447,1.846,1.8463,1.8453,1.8453,1.8455,1.8467,1.8472,1.8473,1.8494,1.8477,1.8478,1.8478,1.8479,1.8531,1.8532,0,0,0,0,0,0,1.8425,1.8427,1.8454,1.8455,1.8435,1.8446,1.8448,1.8455,1.8463,1.8464,1.8455,1.8454,1.847,1.8472,1.8474,1.8497,1.8478,1.8479,1.848,1.8531,1.8531,1.8532,0,0,0,0,0,0,1.8424,1.8427,1.8453,1.8441,1.8444,1.8448,1.8455,1.8455,1.846,1.8465,1.8465,1.8459,1.847,1.8472,1.8488,1.8498,1.8479,1.8481,1.853,1.8531,1.8532,1.8544,0,0,0,0,0,0,1.8423,1.8427,1.8434,1.8441,1.8445,1.8467,1.8456,1.8456,1.8462,1.8461,1.8469,1.8469,1.8469,1.8486,1.8489,1.8499,1.8482,1.8529,1.853,1.8531,1.8543,1.8546,1.8548,0,0,0,0,0,1.8421,1.8437,1.8435,1.8438,1.8454,1.8468,1.847,1.847,1.8463,1.8471,1.8473,1.8469,1.8496,1.8488,1.8491,1.8501,1.8528,1.853,1.8531,1.8542,1.8545,1.8548,0,0,0,0,0,0,1.8431,1.8438,1.8435,1.8453,1.846,1.8467,1.8476,1.8473,1.8482,1.848,1.848,1.8481,1.8498,1.8501,1.8492,1.8521,1.8511,1.8513,1.8518,1.8521,1.8524,1.8522,1.8482,0,0,0,0,0,1.8435,1.8445,1.8451,1.8467,1.847,1.8472,1.8478,1.8478,1.8485,1.8487,1.8491,1.8498,1.8508,1.8515,1.8524,1.8543,1.8545,1.8552,1.8555,1.8557,1.8559,1.8569,1.8573,1.8537,1.8537,1.8537,0,0,1.8444,1.8449,1.8455,1.8469,1.8474,1.8485,1.8475,1.8487,1.8495,1.8489,1.8504,1.8508,1.8515,1.8533,1.8541,1.8536,1.8569,1.8559,1.856,1.8561,1.8571,1.8575,1.8578,1.8538,1.8538,1.8538,0,0,1.8465,1.847,1.8484,1.8489,1.8497,1.8499,1.8502,1.8509,1.8511,1.8526,1.8522,1.8532,1.8549,1.8555,1.856,1.8584,1.858,1.8587,1.86,1.861,1.8613,1.8615,1.8624,1.8627,1.8589,1.8589,1.8589,0,1.8475,1.8492,1.8491,1.8503,1.8509,1.8505,1.8519,1.8524,1.8534,1.8539,1.8533,1.8555,1.856,1.8579,1.8585,1.8589,1.8593,1.8586,1.8613,1.8615,1.8617,1.8626,1.8629,1.859,1.859,1.859,1.859,0,1.8503,1.8515,1.8525,1.8535,1.8542,1.8556,1.8557,1.8564,1.8563,1.8565,1.8581,1.8587,1.8597,1.8602,1.8601,1.8621,1.8618,1.8613,1.8603,1.8622,1.863,1.8633,1.8591,1.8591,1.859,1.859,0,0,1.8531,1.8542,1.8545,1.855,1.8559,1.8568,1.858,1.8591,1.8597,1.8605,1.8616,1.8631,1.8626,1.8632,1.8631,1.864,1.866,1.8634,1.8634,1.8639,1.8683,1.8687,1.8691,1.8657,1.8658,1.8658,1.8682,0,1.8554,1.8577,1.8577,1.8598,1.8608,1.8604,1.8615,1.8622,1.8624,1.8634,1.8636,1.8647,1.864,1.8643,1.8652,1.8655,1.8668,1.8654,1.8667,1.8668,1.8666,1.8695,1.8699,1.8721,1.8685,1.8686,1.8686,0,1.8583,1.8592,1.8614,1.8621,1.8625,1.8636,1.8645,1.8654,1.8662,1.8663,1.867,1.8668,1.8681,1.8671,1.8689,1.8679,1.8685,1.8687,1.8688,1.869,1.8678,1.8697,1.8728,1.8732,1.8691,1.8691,1.869,0,1.8602,1.8619,1.8634,1.8639,1.8647,1.8654,1.8658,1.8665,1.8672,1.868,1.8684,1.8694,1.87,1.8708,1.8709,1.8701,1.8727,1.8717,1.8729,1.8729,1.8735,1.8734,1.8768,1.8738,1.8738,1.8738,1.8738,0,1.8627,1.8641,1.8643,1.8652,1.8668,1.8668,1.8683,1.8686,1.8692,1.8702,1.8699,1.8709,1.8709,1.8719,1.872,1.8735,1.8738,1.8739,1.8739,1.874,1.874,1.8744,1.8742,1.8739,1.8739,1.8738,1.8738,0,1.8651,1.8652,1.8669,1.8676,1.8678,1.8689,1.8695,1.8704,1.8706,1.8719,1.8722,1.8726,1.8737,1.8739,1.8752,1.8753,1.8771,1.877,1.8769,1.8769,1.8781,1.878,1.8818,1.8823,1.879,1.879,1.879,0,1.8667,1.8677,1.8685,1.8692,1.8696,1.8707,1.8714,1.8714,1.8721,1.873,1.8738,1.875,1.8759,1.8777,1.8781,1.8791,1.879,1.8803,1.8792,1.8792,1.8791,1.879,1.8792,1.8805,1.8805,1.8806,1.8806,0,1.8696,1.8696,1.8706,1.8716,1.8724,1.8732,1.8739,1.8745,1.8746,1.8754,1.8766,1.8773,1.8787,1.8798,1.8808,1.8813,1.881,1.8809,1.8813,1.8813,1.8813,1.8814,1.8775,1.8809,1.8808,1.8808,1.8808,1.8808,1.8716,1.8726,1.8733,1.8744,1.8749,1.8756,1.8765,1.8769,1.8778,1.879,1.8789,1.8802,1.881,1.8823,1.8828,1.8838,1.8834,1.8839,1.884,1.8842,1.8843,1.8811,1.884,1.884,1.884,1.884,1.884,0,1.8745,1.875,1.876,1.877,1.8779,1.8775,1.8783,1.8791,1.8802,1.8809,1.8818,1.8832,1.8843,1.8848,1.8858,1.8866,1.8865,1.8869,1.8868,1.8869,1.8846,1.8842,1.8869,1.8869,1.8869,1.8869,1.8869,1.8869,1.8761,1.8777,1.8778,1.8797,1.8801,1.8814,1.8819,1.8825,1.8831,1.8846,1.8855,1.8858,1.8864,1.8876,1.8886,1.8887,1.8891,1.8896,1.8896,1.8874,1.8871,1.8868,1.8865,1.8896,1.8896,1.8919,1.8919,1.8919]}]]